Regional Weather Roundup
Issued by NWS Sterling, VA

Home | Current Version | Previous Version | Text Only | Print | Product List | Glossary Off
Versions: 1 2 3 4 5 6 7 8 9 10 11 12 13 14 15 16 17 18 19 20 21 22 23 24 25 26 27 28 29 30 31 32 33 34 35 36 37 38 39 40 41 42 43 44 45 46 47 48 49 50

000
ASUS41 KLWX 240310
RWRLWX

REGIONAL WEATHER ROUNDUP
NATIONAL WEATHER SERVICE BALTIMORE MD/WASHINGTON DC
1000 PM EST SUN NOV 23 2014

Note: "FAIR" indicates few or no clouds below 12,000 feet
with no significant weather and/or obstructions to visibility.
 TC=TEMPERATURE CELSIUS

 * =Non NWS site. Station does not report precipitation (e.g. rain,
    snow, etc.), thunder, or fog.

DCZ001-MDZ009-015-VAZ040>042-051-053>054-240400-
WASHINGTON METRO

CITY           SKY/WX    TMP DP  RH WIND       PRES   REMARKS
WASHINGTON NAT CLOUDY    54  48  82 SE5       29.94F
DULLES         LGT RAIN  50  50 100 SE7       29.91F FOG
ANDREWS AFB    CLOUDY    50  50  98 E9        29.93F
FT BELVOIR     LGT RAIN  52  50  93 VRB2      29.92F
QUANTICO       LGT RAIN  50  48  93 S3        29.93F
COLLEGE PARK*  CLOUDY    50  48  93 CALM      29.93F
LEESBURG*      LGT RAIN  52  52 100 MISG      29.91F
MANASSAS*      CLOUDY    52  52 100 SE8       29.90F
GAITHERSBURG*  CLOUDY    48  45  87 SE9       29.96F

$$

MDZ006>007-011-014-240400-
BALTIMORE METRO

CITY           SKY/WX    TMP DP  RH WIND       PRES   REMARKS
BWI AIRPORT    LGT RAIN  47  45  93 NE3       29.94F
MD SCIENCE CTR   N/A     48  43  82 MISG      29.96F
MARTIN STATE   DRIZZLE   46  45  93 NE5       29.97F
ANNAPOLIS      CLOUDY    49  45  86 SE7       29.94F
FORT MEADE*    CLOUDY    50  46  87 CALM      29.96F

$$

MDZ012-015-019>023-240400-
MARYLAND EASTERN SHORE

CITY           SKY/WX    TMP DP  RH WIND       PRES   REMARKS
OCEAN CITY     CLOUDY    56  54  93 VRB6      30.01F
SALISBURY      CLOUDY    59  55  87 E7        29.98F
BAY BRIDGE AP*   N/A     54  50  87 SE8       29.95F
CAMBRIDGE*     CLOUDY    59  54  82 SE9       29.94F
EASTON*        CLOUDY    57  57 100 SE8       29.99F

$$

MDZ017>025-240400-
SOUTHERN MARYLAND

CITY           SKY/WX    TMP DP  RH WIND       PRES   REMARKS
PATUXENT RIVER CLOUDY    53  50  89 SE12      29.95F
ST INIGOES     CLOUDY    58  52  80 SE7       29.94F
LEONARDTOWN*   CLOUDY    55  52  88 SE7       29.95F

$$

MDZ003>005-240400-
NORTH CENTRAL MARYLAND

CITY           SKY/WX    TMP DP  RH WIND       PRES   REMARKS
FREDERICK*     LGT RAIN  48  43  81 N3        29.94F
HAGERSTOWN APT LGT RAIN  51  46  83 S9        29.88F
WESTMINSTER*   LGT RAIN  46  45  93 SE12      29.92F

$$

MDZ501>502-240400-
WESTERN MARYLAND

CITY           SKY/WX    TMP DP  RH WIND       PRES   REMARKS
OAKLAND*       CLOUDY    46 N/A N/A SE22G33   29.71F FOG
CUMBERLAND*    CLOUDY    50  45  81 CALM      29.86F

$$

VAZ025>031-240400-
SHENANDOAH VALLEY

CITY           SKY/WX    TMP DP  RH WIND       PRES   REMARKS
WINCHESTER*    RAIN      50  45  81 E3        29.86F
FRONT ROYAL*   CLOUDY    46  46 100 CALM      29.85F
LURAY*         DRIZZLE   52  52 100 N3        29.83F
NEW MARKET*    CLOUDY    51  49  95 CALM      29.81F
STAUNTON*      RAIN      48  47  94 CALM      29.84F
WAYNESBORO*    CLOUDY    46  45  97 SE6       29.82F

$$

WVZ021-048>050-054>055-240400-
EASTERN WEST VIRGINIA PANHANDLE

CITY           SKY/WX    TMP DP  RH WIND       PRES   REMARKS
MARTINSBURG    CLOUDY    49  44  83 SE5       29.89F
PETERSBURG*    RAIN      50  50 100 CALM      29.77F

$$

VAZ036>039-050-240400-
CENTRAL FOOTHILLS

CITY           SKY/WX    TMP DP  RH WIND       PRES   REMARKS
CHARLOTTESVILL RAIN      47  45  93 NW6       29.85F FOG
CULPEPER*      RAIN      54  52  94 CALM      29.88F
ORANGE*        RAIN      52  50  93 NE5       29.87F
GORDONSVILLE*  CLOUDY    49  49  98 NE3       29.84F FOG
WARRENTON*     RAIN      53  53 100 E3        29.87F

$$

VAZ055>057-240400-
NORTH AND CENTRAL PIEDMONT

CITY           SKY/WX    TMP DP  RH WIND       PRES   REMARKS
FREDERICKSBRG* RAIN      52  52 100 E6        29.88F
STAFFORD*      LGT RAIN  52  52 100 E6        29.94F

$$

NCZ024-NYZ072-PAZ021-071-VAZ022-071-240400-
OTHER REGIONAL OBSERVATIONS

CITY           SKY/WX    TMP DP  RH WIND       PRES   REMARKS
NEW YORK CITY  CLOUDY    53  43  68 S3        30.09F
PHILADELPHIA   CLOUDY    53  46  77 SE5       30.02F
PITTSBURGH     LGT RAIN  53  47  79 SE12      29.62F
ROANOKE        LGT RAIN  44  43  96 W7        29.81F FOG
RICHMOND       LGT RAIN  58  55  90 SE12      29.88F
RALEIGH        LGT RAIN  63  59  87 S13G23    29.83F

$$

ANZ530>537-240400-
MARINE OBSERVATIONS

STATION/POSITION TIME  TEMP    WIND        PRES
                       AIR SEA DIR/SP/G
                 (UTC) (F)     (DEG/KT/KT) (MB)
THOMAS PT LIGHT  0300   50 47  110/  4/  4 1015.2F
BALT KEY BRIDGE  0300   46      40/  2/  2 1014.5F
COVE POINT       0300   51     190/ 11/ 13 1014.0F
LEWISETTA        0300   57 44  150/ 11/ 13 1013.3F
SOLOMONS ISLAND  0300      49                N/A
PINEY POINT      0300          150/ 17/ 17   N/A

$$



USA.gov is the U.S. government's official web portal to all federal, state and local government web resources and services.